User: anonymous   Login
Location: Unspecified
(0.0000°N, 0.0000°E)
Time: 08:59:29
(UTC+00:00)
Language:

STARLINK-33568 - Orbit

View from above orbital plane
View from above orbital plane
View from above satellite
View from above satellite

Ground track
Ground track

The orbit is defined by the following mean orbital elements,

1 62779U          26145.58335647 +.00000000 +00000-0 -53026-3 0 00003
2 62779  53.1595 325.2309 0000772  93.7703 307.4008 15.33577784    02
Epoch (UTC): 25 May 2026 14:00:01
Eccentricity: 0.0000772
inclination: 53.1595°
perigee height: 465 km
apogee height: 466 km
right ascension of ascending node: 325.2309°
argument of perigee: 93.7703°
revolutions per day: 15.33577784
mean anomaly at epoch: 307.4008°

The dashed part of the orbit path shows where the satellite is in the earth's shadow,  

DLR